Home > Weather > Chorzów > Past weeks

Flag for Poland Weather for the Past 2 Weeks in Chorzów, Poland

Now
52 °F

Passing clouds.


Feels Like: 49 °F
Forecast: 48 / 62 °F
Wind: 8 mph from Northeast

Location: Katowice Airport

Current Time: May 4, 2016 at 4:27:19 AM

Latest Report: May 4, 2016 at 4:00 AM


Visibility: N/A

Pressure: 29.98 "Hg

Humidity: 77%

Dew Point: 45 °F

Location of ChorzówLocation

Historic Weather in Chorzów — Graph

°F

Chorzów Temperature Yesterday

Maximum temperature yesterday: 64 °F (at 3:00 PM)
Minimum temperature yesterday: 45 °F (at 3:00 AM)
Average temperature yesterday: 54 °F

High & Low Weather Summary for the Past Weeks

 TemperatureHumidityPressure
High64 °F (May 3, 3:00 PM)100% (Apr 19, 3:00 AM)30.30 "Hg (Apr 19, 3:00 AM)
Low23 °F (Apr 26, 6:00 AM)24% (Apr 23, 1:30 PM)29.59 "Hg (Apr 24, 12:30 AM)
Average45 °F71%29.97 "Hg
* Reported Apr 19 3:00 AM — May 4 3:00 AM, Chorzów, Weather by CustomWeather, © 2016

Note: Actual official high and low records may vary slightly from our data, if they occured in-between our weather recording intervals... More about our weather records

Advertising

Chorzów Weather History for the Previous 24 Hours

Scroll right to see more
 ConditionsComfort  
Time TempWeatherWind HumidityBarometerVisibility
3:00 AM
Wed, May 4
52 °FPassing clouds.8 mph82%29.98 "HgN/A
2:30 AM50 °FPassing clouds.3 mph88%29.98 "HgN/A
2:00 AM48 °FPassing clouds.5 mph94%29.95 "HgN/A
1:30 AM48 °FPassing clouds.6 mph94%29.98 "HgN/A
1:00 AM48 °FPassing clouds.5 mph94%29.95 "Hg6 mi
12:00 AM48 °FClear.5 mph94%29.95 "Hg10 mi
11:30 PM
Tue, May 3
48 °FClear.5 mph94%29.95 "Hg10 mi
11:00 PM50 °FClear.5 mph94%29.95 "Hg10 mi
10:30 PM50 °FPassing clouds.5 mph94%29.95 "HgN/A
10:00 PM52 °FPassing clouds.5 mph88%29.95 "HgN/A
9:30 PM52 °FPassing clouds.5 mph88%29.95 "HgN/A
9:00 PM54 °FPassing clouds.5 mph88%29.95 "HgN/A
8:30 PM54 °FPassing clouds.3 mph82%29.92 "HgN/A
8:00 PM55 °FPassing clouds.3 mph77%29.92 "HgN/A
7:30 PM55 °FPassing clouds.5 mph77%29.92 "HgN/A
7:00 PM57 °FPassing clouds.9 mph72%29.92 "HgN/A
6:30 PM63 °FSunny.8 mph45%29.89 "Hg10 mi
6:00 PM63 °FPassing clouds.9 mph49%29.89 "HgN/A
5:30 PM63 °FPassing clouds.8 mph52%29.89 "HgN/A
5:00 PM63 °FPassing clouds.8 mph52%29.89 "HgN/A
4:30 PM63 °FThundershowers. Passing clouds.12 mph52%29.89 "HgN/A
4:00 PM64 °FPassing clouds.12 mph46%29.89 "HgN/A
3:30 PM64 °FPassing clouds.12 mph49%29.89 "HgN/A
3:00 PM64 °FPassing clouds.13 mph49%29.89 "HgN/A
2:30 PM63 °FScattered clouds.14 mph49%29.89 "HgN/A
1:30 PM63 °FPassing clouds.13 mph59%29.92 "HgN/A
1:00 PM63 °FScattered clouds.10 mph59%29.92 "HgN/A
12:30 PM61 °FThunderstorms. Scattered clouds.10 mph68%29.92 "HgN/A
12:00 PM61 °FPassing clouds.12 mph63%29.95 "HgN/A
11:00 AM59 °FPassing clouds.9 mph68%29.95 "HgN/A
10:00 AM59 °FPassing clouds.7 mph72%29.98 "HgN/A
9:30 AM55 °FPassing clouds.6 mph82%29.98 "HgN/A
9:00 AM55 °FPassing clouds.9 mph88%29.98 "HgN/A
8:30 AM52 °FPassing clouds.3 mph94%29.98 "HgN/A
8:00 AM50 °FSunny.2 mph100%29.98 "Hg10 mi
7:30 AM48 °FFog.3 mph100%29.98 "Hg3 mi
7:00 AM48 °FFog.2 mph100%29.98 "Hg2 mi
6:30 AM46 °FFog.2 mph100%29.98 "Hg1 mi
6:00 AM46 °FFog.2 mph100%29.98 "Hg1 mi
5:30 AM46 °FFog.2 mph93%30.01 "Hg0 mi
5:00 AM45 °FFog.1 mph100%30.01 "Hg0 mi
4:30 AM45 °FFog.1 mph100%30.01 "Hg0 mi
4:00 AM45 °FFog.2 mph100%30.01 "Hg0 mi
Weather by CustomWeather, © 2016

See weather overviewHow to use our weather pages